Time,TemperatureF,DewpointF,PressureIn,WindDirection,WindDirectionDegrees,WindSpeedMPH,WindSpeedGustMPH,Humidity,HourlyPrecipIn,Conditions,Clouds,dailyrainin,SoftwareType,DateUTC
2013-04-28 00:01:00,54.7,43.5,30.04,East,90,0.0,0.0,66,0.00,,,0.00,meteohub,2013-04-28 05:01:00,
2013-04-28 00:07:00,54.7,43.9,30.04,East,90,0.0,0.0,67,0.00,,,0.00,meteohub,2013-04-28 05:07:00,
2013-04-28 00:12:00,54.7,43.5,30.04,East,90,0.0,0.0,66,0.00,,,0.00,meteohub,2013-04-28 05:12:00,
2013-04-28 00:17:00,54.7,43.9,30.04,East,90,0.0,1.0,67,0.00,,,0.00,meteohub,2013-04-28 05:17:00,
2013-04-28 00:22:00,54.5,43.7,30.04,East,90,0.0,1.0,67,0.00,,,0.00,meteohub,2013-04-28 05:22:00,
2013-04-28 00:27:00,54.3,43.5,30.04,East,90,0.0,1.0,67,0.00,,,0.00,meteohub,2013-04-28 05:27:00,
2013-04-28 00:32:00,54.3,43.5,30.04,East,90,0.0,0.0,67,0.00,,,0.00,meteohub,2013-04-28 05:32:00,
2013-04-28 00:37:00,54.3,43.5,30.04,East,90,0.0,0.0,67,0.00,,,0.00,meteohub,2013-04-28 05:37:00,
2013-04-28 00:42:00,54.1,43.3,30.03,East,90,0.0,0.0,67,0.00,,,0.00,meteohub,2013-04-28 05:42:00,
2013-04-28 00:47:00,54.1,43.3,30.03,East,90,0.0,0.0,67,0.00,,,0.00,meteohub,2013-04-28 05:47:00,
2013-04-28 00:52:00,54.1,43.3,30.02,East,90,0.0,0.0,67,0.00,,,0.00,meteohub,2013-04-28 05:52:00,
2013-04-28 00:57:00,54.1,43.3,30.02,East,90,0.0,0.0,67,0.00,,,0.00,meteohub,2013-04-28 05:57:00,
2013-04-28 01:02:00,54.0,43.7,30.02,East,90,0.0,0.0,68,0.00,,,0.00,meteohub,2013-04-28 06:02:00,
2013-04-28 01:07:00,53.8,43.9,30.02,East,90,0.0,0.0,69,0.00,,,0.00,meteohub,2013-04-28 06:07:00,
2013-04-28 01:12:00,53.4,43.2,30.02,East,90,0.0,0.0,68,0.00,,,0.00,meteohub,2013-04-28 06:12:00,
2013-04-28 01:17:00,53.1,43.2,30.02,East,90,0.0,0.0,69,0.00,,,0.00,meteohub,2013-04-28 06:17:00,
2013-04-28 01:22:00,52.7,42.8,30.01,East,90,0.0,0.0,69,0.00,,,0.00,meteohub,2013-04-28 06:22:00,
2013-04-28 01:27:00,52.3,42.8,30.01,East,90,0.0,0.0,70,0.00,,,0.00,meteohub,2013-04-28 06:27:00,
2013-04-28 01:32:00,52.2,42.6,30.01,East,90,0.0,0.0,70,0.00,,,0.00,meteohub,2013-04-28 06:32:00,
2013-04-28 01:37:00,51.8,42.3,30.01,East,90,0.0,0.0,70,0.00,,,0.00,meteohub,2013-04-28 06:37:00,
2013-04-28 01:42:00,51.6,42.1,30.01,East,90,0.0,0.0,70,0.00,,,0.00,meteohub,2013-04-28 06:42:00,
2013-04-28 01:47:00,51.4,42.4,30.01,East,90,0.0,0.0,71,0.00,,,0.00,meteohub,2013-04-28 06:47:00,
2013-04-28 01:52:00,51.1,42.4,30.01,East,90,0.0,0.0,72,0.00,,,0.00,meteohub,2013-04-28 06:52:00,
2013-04-28 01:57:00,51.1,42.4,30.00,East,90,0.0,0.0,72,0.00,,,0.00,meteohub,2013-04-28 06:57:00,
2013-04-28 02:02:00,50.7,42.4,30.00,East,90,0.0,0.0,73,0.00,,,0.00,meteohub,2013-04-28 07:02:00,
2013-04-28 02:07:00,50.7,42.8,30.00,East,90,0.0,0.0,74,0.00,,,0.00,meteohub,2013-04-28 07:07:00,
2013-04-28 02:12:00,50.7,42.4,30.00,East,90,0.0,0.0,73,0.00,,,0.00,meteohub,2013-04-28 07:12:00,
2013-04-28 02:17:00,51.1,43.5,30.00,East,90,0.0,0.0,75,0.00,,,0.00,meteohub,2013-04-28 07:17:00,
2013-04-28 02:22:00,51.1,43.5,29.99,East,90,0.0,0.0,75,0.00,,,0.00,meteohub,2013-04-28 07:22:00,
2013-04-28 02:27:00,51.1,43.5,29.99,East,90,0.0,0.0,75,0.00,,,0.00,meteohub,2013-04-28 07:27:00,
2013-04-28 02:32:00,51.1,43.5,29.99,East,90,0.0,0.0,75,0.00,,,0.00,meteohub,2013-04-28 07:32:00,
2013-04-28 02:37:00,50.9,43.3,29.99,East,90,0.0,0.0,75,0.00,,,0.00,meteohub,2013-04-28 07:37:00,
2013-04-28 02:42:00,50.9,43.3,29.99,East,90,0.0,0.0,75,0.00,,,0.00,meteohub,2013-04-28 07:42:00,
2013-04-28 02:47:00,50.9,43.5,29.99,East,90,0.0,0.0,76,0.00,,,0.00,meteohub,2013-04-28 07:47:00,
2013-04-28 02:52:00,50.9,43.3,29.98,East,90,0.0,0.0,75,0.00,,,0.00,meteohub,2013-04-28 07:52:00,
2013-04-28 02:57:00,50.9,43.3,29.98,East,90,0.0,0.0,75,0.00,,,0.00,meteohub,2013-04-28 07:57:00,
2013-04-28 03:02:00,50.9,43.3,29.98,ENE,75,0.0,1.0,75,0.00,,,0.00,meteohub,2013-04-28 08:02:00,
2013-04-28 03:07:00,50.9,43.3,29.98,ENE,65,0.0,1.0,75,0.00,,,0.00,meteohub,2013-04-28 08:07:00,
2013-04-28 03:12:00,50.9,43.3,29.97,ENE,65,0.0,1.0,75,0.00,,,0.00,meteohub,2013-04-28 08:12:00,
2013-04-28 03:17:00,50.9,43.0,29.97,ENE,65,0.0,1.0,74,0.00,,,0.00,meteohub,2013-04-28 08:17:00,
2013-04-28 03:22:00,51.1,42.8,29.97,ENE,65,0.0,1.0,73,0.00,,,0.00,meteohub,2013-04-28 08:22:00,
2013-04-28 03:27:00,51.1,42.8,29.97,ENE,65,0.0,0.0,73,0.00,,,0.00,meteohub,2013-04-28 08:27:00,
2013-04-28 03:32:00,51.1,43.2,29.97,ENE,65,0.0,0.0,74,0.00,,,0.00,meteohub,2013-04-28 08:32:00,
2013-04-28 03:37:00,51.3,43.0,29.97,ENE,65,0.0,0.0,73,0.00,,,0.00,meteohub,2013-04-28 08:37:00,
2013-04-28 03:42:00,51.3,43.0,29.97,ENE,65,0.0,0.0,73,0.00,,,0.00,meteohub,2013-04-28 08:42:00,
2013-04-28 03:47:00,51.3,43.0,29.97,ENE,65,0.0,1.0,73,0.00,,,0.00,meteohub,2013-04-28 08:47:00,
2013-04-28 03:52:00,51.3,43.3,29.97,ENE,65,0.0,1.0,74,0.00,,,0.00,meteohub,2013-04-28 08:52:00,
2013-04-28 03:57:00,51.1,43.2,29.97,ENE,65,0.0,1.0,74,0.00,,,0.00,meteohub,2013-04-28 08:57:00,
2013-04-28 04:02:00,51.1,43.2,29.97,ENE,65,0.0,0.0,74,0.00,,,0.00,meteohub,2013-04-28 09:02:00,
2013-04-28 04:07:00,50.9,43.3,29.97,ENE,65,0.0,0.0,75,0.00,,,0.00,meteohub,2013-04-28 09:07:00,
2013-04-28 04:12:00,50.7,43.5,29.97,ENE,65,0.0,0.0,76,0.00,,,0.00,meteohub,2013-04-28 09:12:00,
2013-04-28 04:17:00,50.5,43.0,29.97,ENE,65,0.0,0.0,75,0.00,,,0.00,meteohub,2013-04-28 09:17:00,
2013-04-28 04:22:00,50.5,43.3,29.97,ENE,65,0.0,0.0,76,0.00,,,0.00,meteohub,2013-04-28 09:22:00,
2013-04-28 04:27:00,50.4,43.2,29.97,ENE,65,0.0,0.0,76,0.00,,,0.00,meteohub,2013-04-28 09:27:00,
2013-04-28 04:32:00,50.4,43.2,29.97,ENE,65,0.0,0.0,76,0.00,,,0.00,meteohub,2013-04-28 09:32:00,
2013-04-28 04:37:00,50.4,43.2,29.97,ENE,65,0.0,0.0,76,0.00,,,0.00,meteohub,2013-04-28 09:37:00,
2013-04-28 04:42:00,50.4,42.8,29.96,ENE,65,0.0,0.0,75,0.00,,,0.00,meteohub,2013-04-28 09:42:00,
2013-04-28 04:47:00,50.4,43.2,29.96,ENE,65,0.0,0.0,76,0.00,,,0.00,meteohub,2013-04-28 09:47:00,
2013-04-28 04:52:00,50.4,43.2,29.96,ENE,65,0.0,0.0,76,0.00,,,0.00,meteohub,2013-04-28 09:52:00,
2013-04-28 04:57:00,50.4,43.2,29.96,ENE,65,0.0,0.0,76,0.00,,,0.00,meteohub,2013-04-28 09:57:00,
2013-04-28 05:02:00,50.4,43.3,29.96,ENE,65,0.0,0.0,77,0.00,,,0.00,meteohub,2013-04-28 10:02:00,
2013-04-28 05:07:00,50.4,43.2,29.96,ENE,65,0.0,0.0,76,0.00,,,0.00,meteohub,2013-04-28 10:07:00,
2013-04-28 05:12:00,50.4,42.8,29.96,ENE,65,0.0,0.0,75,0.00,,,0.00,meteohub,2013-04-28 10:12:00,
2013-04-28 05:17:00,50.4,43.2,29.96,ENE,65,0.0,0.0,76,0.00,,,0.00,meteohub,2013-04-28 10:17:00,
2013-04-28 05:22:00,50.5,43.3,29.96,ENE,65,0.0,0.0,76,0.00,,,0.00,meteohub,2013-04-28 10:22:00,
2013-04-28 05:27:00,50.5,43.5,29.96,ENE,65,0.0,0.0,77,0.00,,,0.00,meteohub,2013-04-28 10:27:00,
2013-04-28 05:32:00,50.5,43.3,29.96,ENE,65,0.0,0.0,76,0.00,,,0.00,meteohub,2013-04-28 10:32:00,
2013-04-28 05:37:00,50.5,43.3,29.96,ENE,65,0.0,0.0,76,0.00,,,0.00,meteohub,2013-04-28 10:37:00,
2013-04-28 05:42:00,50.5,43.3,29.96,ENE,65,0.0,0.0,76,0.00,,,0.00,meteohub,2013-04-28 10:42:00,
2013-04-28 05:47:00,50.5,43.0,29.96,ENE,65,0.0,0.0,75,0.00,,,0.00,meteohub,2013-04-28 10:47:00,
2013-04-28 05:52:00,50.5,43.3,29.95,ENE,65,0.0,0.0,76,0.00,,,0.00,meteohub,2013-04-28 10:52:00,
2013-04-28 05:57:00,50.5,43.3,29.96,ENE,65,0.0,0.0,76,0.00,,,0.00,meteohub,2013-04-28 10:57:00,
2013-04-28 06:02:00,50.5,43.0,29.95,ENE,65,0.0,0.0,75,0.00,,,0.00,meteohub,2013-04-28 11:02:00,
2013-04-28 06:07:00,50.5,43.3,29.95,ENE,65,0.0,0.0,76,0.00,,,0.00,meteohub,2013-04-28 11:07:00,
2013-04-28 06:12:00,50.7,43.5,29.95,ENE,65,0.0,0.0,76,0.00,,,0.00,meteohub,2013-04-28 11:12:00,
2013-04-28 06:17:00,50.7,44.1,29.96,ENE,65,0.0,0.0,78,0.00,,,0.00,meteohub,2013-04-28 11:17:00,
2013-04-28 06:22:00,50.5,43.5,29.96,ENE,65,0.0,0.0,77,0.00,,,0.00,meteohub,2013-04-28 11:22:00,
2013-04-28 06:27:00,50.7,43.2,29.96,ENE,65,0.0,0.0,75,0.00,,,0.00,meteohub,2013-04-28 11:27:00,
2013-04-28 06:32:00,50.7,43.2,29.95,ENE,65,0.0,0.0,75,0.00,,,0.00,meteohub,2013-04-28 11:32:00,
2013-04-28 06:37:00,50.7,43.5,29.95,ENE,65,0.0,0.0,76,0.00,,,0.00,meteohub,2013-04-28 11:37:00,
2013-04-28 06:42:00,50.9,43.3,29.95,ENE,65,0.0,0.0,75,0.00,,,0.00,meteohub,2013-04-28 11:42:00,
2013-04-28 06:47:00,51.1,43.5,29.95,ENE,65,0.0,0.0,75,0.00,,,0.00,meteohub,2013-04-28 11:47:00,
2013-04-28 06:52:00,51.3,43.5,29.95,ENE,65,0.0,0.0,75,0.00,,,0.00,meteohub,2013-04-28 11:52:00,
2013-04-28 06:57:00,51.3,44.2,29.95,ENE,65,0.0,0.0,77,0.00,,,0.00,meteohub,2013-04-28 11:57:00,
2013-04-28 07:02:00,51.4,43.7,29.95,ENE,65,0.0,0.0,75,0.00,,,0.00,meteohub,2013-04-28 12:02:00,
2013-04-28 07:07:00,51.4,43.5,29.95,ENE,65,0.0,0.0,74,0.00,,,0.00,meteohub,2013-04-28 12:07:00,
2013-04-28 07:12:00,51.6,43.3,29.95,ENE,65,0.0,0.0,73,0.00,,,0.00,meteohub,2013-04-28 12:12:00,
2013-04-28 07:17:00,51.6,43.3,29.95,ENE,65,0.0,0.0,73,0.00,,,0.00,meteohub,2013-04-28 12:17:00,
2013-04-28 07:22:00,51.8,43.3,29.95,ENE,65,0.0,0.0,73,0.00,,,0.00,meteohub,2013-04-28 12:22:00,
2013-04-28 07:27:00,52.0,43.5,29.95,ENE,65,0.0,0.0,73,0.00,,,0.00,meteohub,2013-04-28 12:27:00,
2013-04-28 07:32:00,52.0,43.9,29.95,ENE,65,0.0,0.0,74,0.00,,,0.00,meteohub,2013-04-28 12:32:00,
2013-04-28 07:37:00,52.2,43.7,29.94,ENE,65,0.0,0.0,73,0.00,,,0.00,meteohub,2013-04-28 12:37:00,
2013-04-28 07:42:00,52.2,43.7,29.95,ENE,65,0.0,0.0,73,0.00,,,0.00,meteohub,2013-04-28 12:42:00,
2013-04-28 07:47:00,52.2,43.3,29.95,ENE,65,0.0,0.0,72,0.00,,,0.00,meteohub,2013-04-28 12:47:00,
2013-04-28 07:52:00,52.3,43.2,29.95,ENE,65,0.0,0.0,71,0.00,,,0.00,meteohub,2013-04-28 12:52:00,
2013-04-28 07:57:00,52.3,43.2,29.95,ENE,65,0.0,0.0,71,0.00,,,0.00,meteohub,2013-04-28 12:57:00,
2013-04-28 08:02:00,52.3,43.5,29.95,ENE,65,0.0,0.0,72,0.00,,,0.00,meteohub,2013-04-28 13:02:00,
2013-04-28 08:07:00,52.3,43.5,29.95,ENE,65,0.0,0.0,72,0.00,,,0.00,meteohub,2013-04-28 13:07:00,
2013-04-28 08:12:00,52.5,43.7,29.95,ENE,65,0.0,0.0,72,0.00,,,0.00,meteohub,2013-04-28 13:12:00,
2013-04-28 08:17:00,52.5,43.0,29.95,ENE,65,0.0,0.0,70,0.00,,,0.00,meteohub,2013-04-28 13:17:00,
2013-04-28 08:22:00,52.9,43.7,29.95,ENE,65,0.0,0.0,71,0.00,,,0.00,meteohub,2013-04-28 13:22:00,
2013-04-28 08:27:00,52.9,43.3,29.95,SSW,196,0.0,0.0,70,0.00,,,0.00,meteohub,2013-04-28 13:27:00,
2013-04-28 08:32:00,53.1,43.5,29.95,SSW,196,0.0,0.0,70,0.00,,,0.00,meteohub,2013-04-28 13:32:00,
2013-04-28 08:37:00,53.1,43.2,29.95,SSW,196,0.0,0.0,69,0.00,,,0.00,meteohub,2013-04-28 13:37:00,
2013-04-28 08:42:00,53.2,43.3,29.95,SSW,196,0.0,0.0,69,0.00,,,0.00,meteohub,2013-04-28 13:42:00,
2013-04-28 08:47:00,53.4,43.9,29.95,SSW,196,0.0,0.0,70,0.00,,,0.00,meteohub,2013-04-28 13:47:00,
2013-04-28 08:52:00,53.4,43.9,29.95,SW,234,0.0,0.0,70,0.00,,,0.00,meteohub,2013-04-28 13:52:00,
2013-04-28 08:57:00,53.2,44.4,29.96,WSW,244,0.0,0.0,72,0.00,,,0.00,meteohub,2013-04-28 13:57:00,
2013-04-28 09:02:00,53.2,44.8,29.96,WSW,244,0.0,0.0,73,0.00,,,0.00,meteohub,2013-04-28 14:02:00,
2013-04-28 09:07:00,53.2,44.4,29.95,WSW,244,0.0,0.0,72,0.00,,,0.00,meteohub,2013-04-28 14:07:00,
2013-04-28 09:12:00,53.2,44.1,29.95,WSW,244,0.0,0.0,71,0.00,,,0.00,meteohub,2013-04-28 14:12:00,
2013-04-28 09:17:00,53.2,44.4,29.95,WSW,244,0.0,0.0,72,0.00,,,0.00,meteohub,2013-04-28 14:17:00,
2013-04-28 09:22:00,53.4,44.2,29.95,WSW,244,0.0,0.0,71,0.00,,,0.00,meteohub,2013-04-28 14:22:00,
2013-04-28 09:27:00,53.8,44.6,29.95,WSW,244,0.0,0.0,71,0.00,,,0.00,meteohub,2013-04-28 14:27:00,
2013-04-28 09:32:00,53.8,44.2,29.95,WSW,244,0.0,0.0,70,0.00,,,0.00,meteohub,2013-04-28 14:32:00,
2013-04-28 09:37:00,53.8,44.6,29.95,WSW,251,0.0,0.0,71,0.00,,,0.00,meteohub,2013-04-28 14:37:00,
2013-04-28 09:42:00,53.8,44.2,29.95,WSW,251,1.0,4.0,70,0.00,,,0.00,meteohub,2013-04-28 14:42:00,
2013-04-28 09:47:00,54.0,44.4,29.95,West,263,0.0,4.0,70,0.00,,,0.00,meteohub,2013-04-28 14:47:00,
2013-04-28 09:52:00,54.0,44.4,29.94,West,263,0.0,5.0,70,0.00,,,0.00,meteohub,2013-04-28 14:52:00,
2013-04-28 09:57:00,54.1,44.6,29.94,West,263,0.0,5.0,70,0.00,,,0.00,meteohub,2013-04-28 14:57:00,
2013-04-28 10:02:00,54.1,44.2,29.94,West,263,0.0,1.0,69,0.00,,,0.00,meteohub,2013-04-28 15:02:00,
2013-04-28 10:07:00,54.1,44.2,29.94,West,263,0.0,1.0,69,0.00,,,0.00,meteohub,2013-04-28 15:07:00,
2013-04-28 10:12:00,54.3,44.4,29.94,West,263,0.0,1.0,69,0.00,,,0.00,meteohub,2013-04-28 15:12:00,
2013-04-28 10:17:00,54.3,44.8,29.94,West,263,0.0,1.0,70,0.00,,,0.00,meteohub,2013-04-28 15:17:00,
2013-04-28 10:22:00,54.7,44.8,29.94,West,263,0.0,1.0,69,0.00,,,0.00,meteohub,2013-04-28 15:22:00,
2013-04-28 10:27:00,54.9,44.4,29.94,West,263,0.0,0.0,68,0.00,,,0.00,meteohub,2013-04-28 15:27:00,
2013-04-28 10:32:00,55.0,44.6,29.94,West,263,0.0,0.0,68,0.00,,,0.00,meteohub,2013-04-28 15:32:00,
2013-04-28 10:37:00,55.2,44.4,29.94,West,263,0.0,0.0,67,0.00,,,0.00,meteohub,2013-04-28 15:37:00,
2013-04-28 10:42:00,55.2,44.4,29.94,West,263,0.0,1.0,67,0.00,,,0.00,meteohub,2013-04-28 15:42:00,
2013-04-28 10:47:00,55.4,44.6,29.93,West,263,0.0,1.0,67,0.00,,,0.00,meteohub,2013-04-28 15:47:00,
2013-04-28 10:52:00,55.8,45.0,29.93,West,263,0.0,1.0,67,0.00,,,0.00,meteohub,2013-04-28 15:52:00,
2013-04-28 10:57:00,56.1,45.0,29.93,West,263,0.0,0.0,66,0.00,,,0.00,meteohub,2013-04-28 15:57:00,
2013-04-28 11:02:00,56.7,45.5,29.93,West,263,0.0,0.0,66,0.00,,,0.00,meteohub,2013-04-28 16:02:00,
2013-04-28 11:07:00,57.4,46.0,29.93,West,263,0.0,0.0,66,0.00,,,0.00,meteohub,2013-04-28 16:07:00,
2013-04-28 11:12:00,57.9,46.2,29.93,West,263,0.0,0.0,65,0.00,,,0.00,meteohub,2013-04-28 16:12:00,
2013-04-28 11:17:00,58.5,46.8,29.93,West,263,0.0,2.0,65,0.00,,,0.00,meteohub,2013-04-28 16:17:00,
2013-04-28 11:22:00,58.6,46.0,29.93,West,263,0.0,2.0,63,0.00,,,0.00,meteohub,2013-04-28 16:22:00,
2013-04-28 11:27:00,58.6,46.0,29.93,West,263,0.0,2.0,63,0.00,,,0.00,meteohub,2013-04-28 16:27:00,
2013-04-28 11:32:00,58.6,46.0,29.93,West,263,0.0,1.0,63,0.00,,,0.00,meteohub,2013-04-28 16:32:00,
2013-04-28 11:37:00,58.8,46.2,29.92,West,263,0.0,1.0,63,0.00,,,0.00,meteohub,2013-04-28 16:37:00,
2013-04-28 11:42:00,59.2,46.6,29.92,West,263,0.0,1.0,63,0.00,,,0.00,meteohub,2013-04-28 16:42:00,
2013-04-28 11:47:00,59.7,47.1,29.92,West,263,0.0,1.0,63,0.00,,,0.00,meteohub,2013-04-28 16:47:00,
2013-04-28 11:52:00,59.9,46.8,29.91,West,263,0.0,1.0,62,0.00,,,0.00,meteohub,2013-04-28 16:52:00,
2013-04-28 11:57:00,60.3,47.1,29.91,West,263,0.0,1.0,62,0.00,,,0.00,meteohub,2013-04-28 16:57:00,
2013-04-28 12:02:00,60.3,46.8,29.91,West,263,0.0,1.0,61,0.00,,,0.00,meteohub,2013-04-28 17:02:00,
2013-04-28 12:07:00,60.1,47.8,29.91,West,263,2.0,4.0,64,0.00,,,0.00,meteohub,2013-04-28 17:07:00,
2013-04-28 12:12:00,60.3,48.0,29.91,West,263,2.0,4.0,64,0.00,,,0.00,meteohub,2013-04-28 17:12:00,
2013-04-28 12:17:00,60.6,48.0,29.91,West,263,2.0,4.0,63,0.00,,,0.00,meteohub,2013-04-28 17:17:00,
2013-04-28 12:22:00,61.2,48.0,29.91,West,263,2.0,5.0,62,0.00,,,0.00,meteohub,2013-04-28 17:22:00,
2013-04-28 12:27:00,61.5,48.0,29.91,West,263,0.0,5.0,61,0.00,,,0.00,meteohub,2013-04-28 17:27:00,
2013-04-28 12:32:00,62.1,48.4,29.91,West,263,1.0,5.0,61,0.00,,,0.00,meteohub,2013-04-28 17:32:00,
2013-04-28 12:37:00,63.0,48.9,29.90,West,263,1.0,4.0,60,0.00,,,0.00,meteohub,2013-04-28 17:37:00,
2013-04-28 12:42:00,63.3,49.3,29.90,West,263,0.0,2.0,60,0.00,,,0.00,meteohub,2013-04-28 17:42:00,
2013-04-28 12:47:00,63.5,48.9,29.90,NNE,28,1.0,2.0,59,0.00,,,0.00,meteohub,2013-04-28 17:47:00,
2013-04-28 12:52:00,64.2,49.1,29.90,NE,46,0.0,5.0,58,0.00,,,0.00,meteohub,2013-04-28 17:52:00,
2013-04-28 12:57:00,64.8,48.2,29.89,North,355,2.0,5.0,55,0.00,,,0.00,meteohub,2013-04-28 17:57:00,
2013-04-28 13:02:00,64.9,48.9,29.89,NNE,22,1.0,5.0,56,0.00,,,0.00,meteohub,2013-04-28 18:02:00,
2013-04-28 13:07:00,65.5,48.4,29.89,ENE,69,4.0,4.0,54,0.00,,,0.00,meteohub,2013-04-28 18:07:00,
2013-04-28 13:12:00,65.3,47.7,29.89,ESE,115,5.0,5.0,53,0.00,,,0.00,meteohub,2013-04-28 18:12:00,
2013-04-28 13:17:00,64.8,47.3,29.89,North,11,0.0,5.0,53,0.00,,,0.00,meteohub,2013-04-28 18:17:00,
2013-04-28 13:22:00,65.1,47.5,29.89,West,278,3.0,5.0,53,0.00,,,0.00,meteohub,2013-04-28 18:22:00,
2013-04-28 13:27:00,65.5,47.5,29.89,West,279,0.0,5.0,52,0.00,,,0.00,meteohub,2013-04-28 18:27:00,
2013-04-28 13:32:00,65.5,47.5,29.89,WNW,300,0.0,5.0,52,0.00,,,0.00,meteohub,2013-04-28 18:32:00,
2013-04-28 13:37:00,65.8,47.7,29.89,WNW,300,2.0,5.0,52,0.00,,,0.00,meteohub,2013-04-28 18:37:00,
2013-04-28 13:42:00,65.7,48.0,29.88,WNW,300,0.0,2.0,53,0.00,,,0.00,meteohub,2013-04-28 18:42:00,
2013-04-28 13:47:00,66.0,47.3,29.88,North,355,0.0,2.0,51,0.00,,,0.00,meteohub,2013-04-28 18:47:00,
2013-04-28 13:52:00,66.6,46.8,29.88,NNE,25,0.0,3.0,49,0.00,,,0.00,meteohub,2013-04-28 18:52:00,
2013-04-28 13:57:00,66.7,48.6,29.88,North,9,0.0,3.0,52,0.00,,,0.00,meteohub,2013-04-28 18:57:00,
2013-04-28 14:02:00,67.6,47.3,29.88,ENE,67,2.0,3.0,48,0.00,,,0.00,meteohub,2013-04-28 19:02:00,
2013-04-28 14:07:00,67.6,47.8,29.88,NE,51,0.0,3.0,49,0.00,,,0.00,meteohub,2013-04-28 19:07:00,
2013-04-28 14:12:00,67.6,47.8,29.87,NW,307,3.0,3.0,49,0.00,,,0.00,meteohub,2013-04-28 19:12:00,
2013-04-28 14:17:00,67.1,48.4,29.87,NW,309,0.0,5.0,51,0.00,,,0.00,meteohub,2013-04-28 19:17:00,
2013-04-28 14:22:00,67.5,48.2,29.87,NW,325,1.0,5.0,50,0.00,,,0.00,meteohub,2013-04-28 19:22:00,
2013-04-28 14:27:00,67.8,48.0,29.87,NE,47,1.0,5.0,49,0.00,,,0.00,meteohub,2013-04-28 19:27:00,
2013-04-28 14:32:00,67.6,47.3,29.87,NNE,26,1.0,5.0,48,0.00,,,0.00,meteohub,2013-04-28 19:32:00,
2013-04-28 14:37:00,68.4,48.4,29.87,ENE,75,0.0,4.0,49,0.00,,,0.00,meteohub,2013-04-28 19:37:00,
2013-04-28 14:42:00,68.4,47.8,29.86,East,79,0.0,5.0,48,0.00,,,0.00,meteohub,2013-04-28 19:42:00,
2013-04-28 14:47:00,68.7,48.2,29.86,East,91,1.0,5.0,48,0.00,,,0.00,meteohub,2013-04-28 19:47:00,
2013-04-28 14:52:00,69.6,48.6,29.86,East,90,2.0,5.0,47,0.00,,,0.00,meteohub,2013-04-28 19:52:00,
2013-04-28 14:57:00,69.6,48.6,29.86,WSW,246,2.0,4.0,47,0.00,,,0.00,meteohub,2013-04-28 19:57:00,
2013-04-28 15:02:00,69.4,48.4,29.86,ESE,114,0.0,4.0,47,0.00,,,0.00,meteohub,2013-04-28 20:02:00,
2013-04-28 15:07:00,69.6,48.6,29.85,SE,134,0.0,4.0,47,0.00,,,0.00,meteohub,2013-04-28 20:07:00,
2013-04-28 15:12:00,70.3,48.6,29.85,ESE,106,1.0,3.0,46,0.00,,,0.00,meteohub,2013-04-28 20:12:00,
2013-04-28 15:17:00,70.9,48.6,29.85,ESE,120,0.0,3.0,45,0.00,,,0.00,meteohub,2013-04-28 20:17:00,
2013-04-28 15:22:00,71.4,48.9,29.85,South,185,3.0,4.0,45,0.00,,,0.00,meteohub,2013-04-28 20:22:00,
2013-04-28 15:27:00,70.7,48.9,29.85,ESE,120,0.0,4.0,46,0.00,,,0.00,meteohub,2013-04-28 20:27:00,
2013-04-28 15:32:00,71.1,48.6,29.85,SSE,153,0.0,4.0,45,0.00,,,0.00,meteohub,2013-04-28 20:32:00,
2013-04-28 15:37:00,71.2,48.7,29.84,East,98,0.0,4.0,45,0.00,,,0.00,meteohub,2013-04-28 20:37:00,
2013-04-28 15:42:00,71.8,48.7,29.84,WSW,247,2.0,2.0,44,0.00,,,0.00,meteohub,2013-04-28 20:42:00,
2013-04-28 15:47:00,71.2,48.7,29.84,West,270,7.0,7.0,45,0.00,,,0.00,meteohub,2013-04-28 20:47:00,
2013-04-28 15:52:00,70.2,48.9,29.84,West,278,2.0,7.0,47,0.00,,,0.00,meteohub,2013-04-28 20:52:00,
2013-04-28 15:57:00,70.7,48.9,29.84,West,278,0.0,7.0,46,0.00,,,0.00,meteohub,2013-04-28 20:57:00,
2013-04-28 16:02:00,71.4,48.4,29.84,West,278,0.0,7.0,44,0.00,,,0.00,meteohub,2013-04-28 21:02:00,
2013-04-28 16:07:00,71.8,48.7,29.84,WSW,254,2.0,3.0,44,0.00,,,0.00,meteohub,2013-04-28 21:07:00,
2013-04-28 16:12:00,71.1,48.0,29.83,West,271,0.0,5.0,44,0.00,,,0.00,meteohub,2013-04-28 21:12:00,
2013-04-28 16:17:00,70.5,48.2,29.83,West,271,0.0,5.0,45,0.00,,,0.00,meteohub,2013-04-28 21:17:00,
2013-04-28 16:22:00,69.8,48.0,29.83,West,271,0.0,5.0,46,0.00,,,0.00,meteohub,2013-04-28 21:22:00,
2013-04-28 16:27:00,69.6,48.6,29.83,West,271,0.0,4.0,47,0.00,,,0.00,meteohub,2013-04-28 21:27:00,
2013-04-28 16:32:00,69.3,48.7,29.83,West,271,0.0,2.0,48,0.00,,,0.00,meteohub,2013-04-28 21:32:00,
2013-04-28 16:37:00,69.4,48.4,29.83,West,266,0.0,2.0,47,0.00,,,0.00,meteohub,2013-04-28 21:37:00,
2013-04-28 16:42:00,70.0,48.2,29.83,ESE,122,0.0,2.0,46,0.00,,,0.00,meteohub,2013-04-28 21:42:00,
2013-04-28 16:47:00,69.3,48.7,29.83,ENE,58,0.0,3.0,48,0.00,,,0.00,meteohub,2013-04-28 21:47:00,
2013-04-28 16:52:00,68.5,48.6,29.83,NE,52,0.0,3.0,49,0.00,,,0.00,meteohub,2013-04-28 21:52:00,
2013-04-28 16:57:00,68.4,48.4,29.83,NE,52,0.0,3.0,49,0.00,,,0.00,meteohub,2013-04-28 21:57:00,
2013-04-28 17:02:00,68.7,49.3,29.83,NE,53,0.0,2.0,50,0.00,,,0.00,meteohub,2013-04-28 22:02:00,
2013-04-28 17:07:00,69.1,49.6,29.83,SE,131,0.0,2.0,50,0.00,,,0.00,meteohub,2013-04-28 22:07:00,
2013-04-28 17:12:00,69.1,48.6,29.83,East,96,0.0,1.0,48,0.00,,,0.00,meteohub,2013-04-28 22:12:00,
2013-04-28 17:17:00,69.4,49.5,29.83,East,85,0.0,5.0,49,0.00,,,0.00,meteohub,2013-04-28 22:17:00,
2013-04-28 17:22:00,69.8,49.3,29.83,East,85,0.0,5.0,48,0.00,,,0.00,meteohub,2013-04-28 22:22:00,
2013-04-28 17:27:00,70.0,49.5,29.83,East,85,0.0,4.0,48,0.00,,,0.00,meteohub,2013-04-28 22:27:00,
2013-04-28 17:32:00,69.8,49.8,29.83,WNW,300,4.0,4.0,49,0.00,,,0.00,meteohub,2013-04-28 22:32:00,
2013-04-28 17:37:00,69.4,49.5,29.83,WNW,299,0.0,5.0,49,0.00,,,0.00,meteohub,2013-04-28 22:37:00,
2013-04-28 17:42:00,69.3,48.7,29.83,West,261,0.0,5.0,48,0.00,,,0.00,meteohub,2013-04-28 22:42:00,
2013-04-28 17:47:00,69.3,49.3,29.83,West,261,0.0,5.0,49,0.00,,,0.00,meteohub,2013-04-28 22:47:00,
2013-04-28 17:52:00,69.1,49.1,29.83,West,261,0.0,4.0,49,0.00,,,0.00,meteohub,2013-04-28 22:52:00,
2013-04-28 17:57:00,68.7,48.7,29.83,West,261,0.0,4.0,49,0.00,,,0.00,meteohub,2013-04-28 22:57:00,
2013-04-28 18:02:00,68.7,48.7,29.83,West,261,0.0,4.0,49,0.00,,,0.00,meteohub,2013-04-28 23:02:00,
2013-04-28 18:07:00,68.5,49.1,29.82,West,261,0.0,2.0,50,0.00,,,0.00,meteohub,2013-04-28 23:07:00,
2013-04-28 18:12:00,68.7,49.8,29.82,West,261,0.0,0.0,51,0.00,,,0.00,meteohub,2013-04-28 23:12:00,
2013-04-28 18:17:00,68.9,49.5,29.82,West,261,0.0,0.0,50,0.00,,,0.00,meteohub,2013-04-28 23:17:00,
2013-04-28 18:22:00,69.1,50.2,29.82,East,86,0.0,6.0,51,0.00,,,0.00,meteohub,2013-04-28 23:22:00,
2013-04-28 18:27:00,68.5,52.2,29.82,ESE,107,4.0,6.0,56,0.00,,,0.00,meteohub,2013-04-28 23:27:00,
2013-04-28 18:32:00,67.5,52.2,29.82,SSE,147,0.0,8.0,58,0.00,,,0.00,meteohub,2013-04-28 23:32:00,
2013-04-28 18:37:00,66.4,52.5,29.82,ESE,123,1.0,8.0,61,0.00,,,0.00,meteohub,2013-04-28 23:37:00,
2013-04-28 18:42:00,65.8,52.5,29.82,East,98,2.0,7.0,62,0.00,,,0.00,meteohub,2013-04-28 23:42:00,
2013-04-28 18:47:00,65.1,52.2,29.82,ESE,117,0.0,7.0,63,0.00,,,0.00,meteohub,2013-04-28 23:47:00,
2013-04-28 18:52:00,64.8,52.3,29.82,SE,131,0.0,5.0,64,0.00,,,0.00,meteohub,2013-04-28 23:52:00,
2013-04-28 18:57:00,64.6,52.5,29.82,ESE,111,3.0,6.0,65,0.00,,,0.00,meteohub,2013-04-28 23:57:00,
2013-04-28 19:02:00,64.2,52.2,29.82,ESE,105,0.0,7.0,65,0.00,,,0.00,meteohub,2013-04-29 00:02:00,
2013-04-28 19:07:00,64.0,52.5,29.82,East,97,1.0,7.0,66,0.00,,,0.00,meteohub,2013-04-29 00:07:00,
2013-04-28 19:12:00,63.9,52.7,29.83,East,82,4.0,7.0,67,0.00,,,0.00,meteohub,2013-04-29 00:12:00,
2013-04-28 19:17:00,63.7,52.5,29.83,SE,140,2.0,7.0,67,0.00,,,0.00,meteohub,2013-04-29 00:17:00,
2013-04-28 19:22:00,63.1,52.3,29.83,ESE,110,1.0,7.0,68,0.00,,,0.00,meteohub,2013-04-29 00:22:00,
2013-04-28 19:27:00,63.0,52.7,29.83,ESE,108,0.0,7.0,69,0.00,,,0.00,meteohub,2013-04-29 00:27:00,
2013-04-28 19:32:00,62.4,52.2,29.83,ESE,123,1.0,4.0,69,0.00,,,0.00,meteohub,2013-04-29 00:32:00,
2013-04-28 19:37:00,62.2,52.3,29.83,ESE,105,1.0,5.0,70,0.00,,,0.00,meteohub,2013-04-29 00:37:00,
2013-04-28 19:42:00,61.9,52.0,29.83,ESE,111,1.0,7.0,70,0.00,,,0.00,meteohub,2013-04-29 00:42:00,
2013-04-28 19:47:00,61.5,52.0,29.83,ENE,76,1.0,7.0,71,0.00,,,0.00,meteohub,2013-04-29 00:47:00,
2013-04-28 19:52:00,61.2,52.0,29.83,East,96,0.0,6.0,72,0.00,,,0.00,meteohub,2013-04-29 00:52:00,
2013-04-28 19:57:00,61.0,52.0,29.83,East,96,0.0,6.0,72,0.00,,,0.00,meteohub,2013-04-29 00:57:00,
2013-04-28 20:02:00,60.6,52.0,29.83,East,97,0.0,2.0,73,0.00,,,0.00,meteohub,2013-04-29 01:02:00,
2013-04-28 20:07:00,60.3,52.0,29.83,East,97,0.0,2.0,74,0.00,,,0.00,meteohub,2013-04-29 01:07:00,
2013-04-28 20:12:00,59.7,51.8,29.84,East,94,0.0,2.0,75,0.00,,,0.00,meteohub,2013-04-29 01:12:00,
2013-04-28 20:17:00,59.4,51.8,29.84,East,96,1.0,2.0,76,0.00,,,0.00,meteohub,2013-04-29 01:17:00,
2013-04-28 20:22:00,59.0,51.4,29.84,ESE,107,0.0,2.0,76,0.00,,,0.00,meteohub,2013-04-29 01:22:00,
2013-04-28 20:27:00,58.8,51.6,29.85,ESE,108,0.0,4.0,77,0.00,,,0.00,meteohub,2013-04-29 01:27:00,
2013-04-28 20:32:00,58.6,51.4,29.85,ENE,77,0.0,4.0,77,0.00,,,0.00,meteohub,2013-04-29 01:32:00,
2013-04-28 20:37:00,58.5,51.6,29.85,ESE,105,0.0,4.0,78,0.00,,,0.00,meteohub,2013-04-29 01:37:00,
2013-04-28 20:42:00,58.1,51.3,29.85,ESE,105,0.0,3.0,78,0.00,,,0.00,meteohub,2013-04-29 01:42:00,
2013-04-28 20:47:00,57.9,51.4,29.85,ESE,105,0.0,3.0,79,0.00,,,0.00,meteohub,2013-04-29 01:47:00,
2013-04-28 20:52:00,57.7,51.3,29.85,ESE,105,0.0,1.0,79,0.00,,,0.00,meteohub,2013-04-29 01:52:00,
2013-04-28 20:57:00,57.6,51.4,29.85,ESE,105,0.0,0.0,80,0.00,,,0.00,meteohub,2013-04-29 01:57:00,
2013-04-28 21:02:00,57.2,51.1,29.86,ESE,105,0.0,0.0,80,0.00,,,0.00,meteohub,2013-04-29 02:02:00,
2013-04-28 21:07:00,57.0,50.9,29.86,ESE,105,0.0,0.0,80,0.00,,,0.00,meteohub,2013-04-29 02:07:00,
2013-04-28 21:12:00,56.8,51.1,29.86,ESE,105,0.0,0.0,81,0.00,,,0.00,meteohub,2013-04-29 02:12:00,
2013-04-28 21:17:00,56.5,50.7,29.86,ESE,105,0.0,0.0,81,0.00,,,0.00,meteohub,2013-04-29 02:17:00,
2013-04-28 21:22:00,56.1,50.7,29.86,ESE,105,0.0,0.0,82,0.00,,,0.00,meteohub,2013-04-29 02:22:00,
2013-04-28 21:27:00,55.9,50.5,29.86,ESE,105,0.0,0.0,82,0.00,,,0.00,meteohub,2013-04-29 02:27:00,
2013-04-28 21:32:00,55.9,50.9,29.86,ESE,105,0.0,0.0,83,0.00,,,0.00,meteohub,2013-04-29 02:32:00,
2013-04-28 21:37:00,55.8,50.7,29.86,ESE,105,0.0,0.0,83,0.00,,,0.00,meteohub,2013-04-29 02:37:00,
2013-04-28 21:42:00,55.8,50.7,29.86,ESE,105,0.0,0.0,83,0.00,,,0.00,meteohub,2013-04-29 02:42:00,
2013-04-28 21:47:00,55.6,50.9,29.86,ESE,105,0.0,0.0,84,0.00,,,0.00,meteohub,2013-04-29 02:47:00,
2013-04-28 21:52:00,55.4,50.7,29.86,ESE,105,0.0,0.0,84,0.00,,,0.00,meteohub,2013-04-29 02:52:00,
2013-04-28 21:57:00,55.0,50.4,29.86,ESE,105,0.0,0.0,84,0.00,,,0.00,meteohub,2013-04-29 02:57:00,
2013-04-28 22:02:00,54.9,50.4,29.86,ESE,105,0.0,0.0,85,0.00,,,0.00,meteohub,2013-04-29 03:02:00,
2013-04-28 22:07:00,54.9,50.4,29.86,ESE,105,0.0,0.0,85,0.00,,,0.00,meteohub,2013-04-29 03:07:00,
2013-04-28 22:12:00,54.7,50.2,29.86,ESE,105,0.0,0.0,85,0.00,,,0.00,meteohub,2013-04-29 03:12:00,
2013-04-28 22:17:00,54.5,50.0,29.86,ESE,105,0.0,0.0,85,0.00,,,0.00,meteohub,2013-04-29 03:17:00,
2013-04-28 22:22:00,54.3,50.2,29.86,ESE,105,0.0,0.0,86,0.00,,,0.00,meteohub,2013-04-29 03:22:00,
2013-04-28 22:27:00,54.1,50.0,29.86,ESE,105,0.0,0.0,86,0.00,,,0.00,meteohub,2013-04-29 03:27:00,
2013-04-28 22:32:00,54.0,49.8,29.86,ESE,105,0.0,0.0,86,0.00,,,0.00,meteohub,2013-04-29 03:32:00,
2013-04-28 22:37:00,53.8,49.6,29.86,ESE,105,0.0,0.0,86,0.00,,,0.00,meteohub,2013-04-29 03:37:00,
2013-04-28 22:42:00,53.4,49.6,29.86,ESE,105,0.0,0.0,87,0.00,,,0.00,meteohub,2013-04-29 03:42:00,
2013-04-28 22:47:00,53.4,49.6,29.86,ESE,105,0.0,0.0,87,0.00,,,0.00,meteohub,2013-04-29 03:47:00,
2013-04-28 22:52:00,53.4,49.6,29.86,ESE,105,0.0,0.0,87,0.00,,,0.00,meteohub,2013-04-29 03:52:00,
2013-04-28 22:57:00,53.2,49.5,29.86,ESE,105,0.0,0.0,87,0.00,,,0.00,meteohub,2013-04-29 03:57:00,
2013-04-28 23:01:00,53.2,49.5,29.86,ESE,105,0.0,0.0,87,0.00,,,0.00,meteohub,2013-04-29 04:01:00,
2013-04-28 23:02:00,53.2,49.5,29.86,ESE,105,0.0,0.0,87,0.00,,,0.00,meteohub,2013-04-29 04:02:00,
2013-04-28 23:03:00,53.1,49.3,29.86,ESE,105,0.0,0.0,87,0.00,,,0.00,meteohub,2013-04-29 04:03:00,
2013-04-28 23:08:00,53.1,49.3,29.86,ESE,105,0.0,0.0,87,0.00,,,0.00,meteohub,2013-04-29 04:08:00,
2013-04-28 23:13:00,52.7,48.9,29.86,ESE,105,0.0,0.0,87,0.00,,,0.00,meteohub,2013-04-29 04:13:00,
2013-04-28 23:18:00,52.3,48.6,29.86,ESE,105,0.0,0.0,87,0.00,,,0.00,meteohub,2013-04-29 04:18:00,
2013-04-28 23:23:00,52.2,48.7,29.86,ESE,105,0.0,0.0,88,0.00,,,0.00,meteohub,2013-04-29 04:23:00,
2013-04-28 23:28:00,52.2,48.7,29.86,ESE,105,0.0,0.0,88,0.00,,,0.00,meteohub,2013-04-29 04:28:00,
2013-04-28 23:33:00,52.0,48.6,29.86,ESE,105,0.0,0.0,88,0.00,,,0.00,meteohub,2013-04-29 04:33:00,
2013-04-28 23:38:00,51.8,48.7,29.86,ESE,105,0.0,0.0,89,0.00,,,0.00,meteohub,2013-04-29 04:38:00,
2013-04-28 23:43:00,51.6,48.6,29.86,ESE,105,0.0,0.0,89,0.00,,,0.00,meteohub,2013-04-29 04:43:00,
2013-04-28 23:48:00,51.4,48.6,29.86,ESE,105,0.0,0.0,90,0.00,,,0.00,meteohub,2013-04-29 04:48:00,
2013-04-28 23:53:00,51.3,48.4,29.86,ESE,105,0.0,0.0,90,0.00,,,0.00,meteohub,2013-04-29 04:53:00,
2013-04-28 23:58:00,51.3,48.7,29.86,ESE,105,0.0,0.0,91,0.00,,,0.00,meteohub,2013-04-29 04:58:00,